sat.trackr.live / text

‹ back to catalog

STARLINK-30779

NORAD 58160 · 2023-166L

PAYLOAD ACTIVE UNKNOWN

§ Identity

Operator
Country
US
Launch date
2023-10-29
Launch site
AFWTR
Launch vehicle
Mass (kg)
RCS (m²)

Purposes: comms

External: N2YO · Heavens-Above · Gunter

§ Orbital elements

Epoch: 2026-05-24T14:32:32.567136Z

Period
94.01 min
Inclination
53.1607°
Eccentricity
0.0000952
Mean motion
15.31692983 rev/d
Perigee alt
470.1 km
Apogee alt
471.4 km
Semi-major
6,848.9 km
B*
-2.5833e-6
RAAN
226.9035°
Arg perigee
97.3585°
Mean anomaly
262.7525°
Rev number
14,480

§ Raw data

STARLINK-307791 58160U 23166L   26144.60593249 -.00000445  00000+0 -25833-5 0  99932 58160  53.1607 226.9035 0000952  97.3585 262.7525 15.31692983144807

JSON: /api/v1/satellites/58160 · /tle

For live sub-satellite position, see the globe view (requires WebGL).

§ Visibility from observer

Set your observer location to see the next 7 days of passes ≥ 10°. The values pass through the URL so the page stays shareable.

No JS? Fill the form by hand. The geolocation button needs JavaScript.